TimeCDT,TemperatureF,Dew PointF,Humidity,Sea Level PressureIn,VisibilityMPH,Wind Direction,Wind SpeedMPH,Gust SpeedMPH,PrecipitationIn,Events,Conditions,WindDirDegrees,DateUTC
12:40 AM,33.1,32.0,96,30.20,5.0,NNW,16.1,-,0.09,Rain,Rain,330,2013-05-03 05:40:00
12:52 AM,33.1,32.0,96,30.21,6.0,NW,11.5,-,0.11,Rain,Light Rain,320,2013-05-03 05:52:00
1:01 AM,33.1,32.0,96,30.19,4.0,NW,11.5,-,0.00,Rain,Light Rain,310,2013-05-03 06:01:00
1:11 AM,33.1,32.0,96,30.18,3.0,NW,12.7,-,0.01,Rain,Rain,310,2013-05-03 06:11:00
1:16 AM,33.1,32.0,96,30.18,2.5,NW,11.5,-,0.02,Rain,Rain,320,2013-05-03 06:16:00
1:50 AM,33.8,32.0,93,30.16,3.0,NNW,12.7,-,0.06,Rain,Light Rain,330,2013-05-03 06:50:00
1:52 AM,33.1,32.0,96,30.17,3.0,NNW,13.8,-,0.06,Rain,Light Rain,330,2013-05-03 06:52:00
2:52 AM,33.1,30.9,92,30.14,4.0,NNW,18.4,-,0.13,Rain,Heavy Rain,330,2013-05-03 07:52:00
3:02 AM,33.1,30.9,92,30.13,4.0,NNW,16.1,-,0.04,Rain,Heavy Rain,330,2013-05-03 08:02:00
3:16 AM,33.1,30.9,92,30.13,7.0,NNW,13.8,-,0.08,Rain,Rain,330,2013-05-03 08:16:00
3:52 AM,33.1,30.9,92,30.12,9.0,NNW,19.6,-,0.12,Snow,Light Snow,340,2013-05-03 08:52:00
4:11 AM,33.1,30.9,92,30.10,6.0,NNW,16.1,-,0.02,Rain,Light Rain,340,2013-05-03 09:11:00
4:52 AM,33.1,30.9,92,30.13,2.5,NNW,15.0,-,0.04,Snow,Light Snow,330,2013-05-03 09:52:00
5:34 AM,32.0,30.9,96,30.08,4.0,NNW,17.3,-,0.07,,Overcast,340,2013-05-03 10:34:00
5:52 AM,32.0,30.9,96,30.12,6.0,NNW,15.0,-,0.09,,Overcast,330,2013-05-03 10:52:00
6:52 AM,33.1,30.9,92,30.11,3.0,NW,12.7,-,0.04,Rain,Light Rain,320,2013-05-03 11:52:00
7:45 AM,33.1,30.9,92,30.05,2.0,NNW,13.8,-,0.02,Rain,Light Rain,340,2013-05-03 12:45:00
7:52 AM,33.1,30.9,92,30.08,1.5,NNW,13.8,-,0.03,Rain,Rain,340,2013-05-03 12:52:00
8:11 AM,33.1,30.9,92,30.06,0.8,NNW,15.0,-,0.02,Rain,Rain,330,2013-05-03 13:11:00
8:20 AM,33.1,30.9,92,30.06,1.0,NNW,12.7,-,0.03,Snow,Light Snow,330,2013-05-03 13:20:00
8:49 AM,33.8,30.2,87,30.05,3.0,NNW,15.0,-,0.05,,Overcast,330,2013-05-03 13:49:00
8:52 AM,33.1,30.9,92,30.06,4.0,NNW,17.3,-,0.05,Snow,Light Snow,330,2013-05-03 13:52:00
9:08 AM,33.1,30.9,92,30.05,2.0,NNW,15.0,-,0.00,Snow,Light Snow,330,2013-05-03 14:08:00
9:41 AM,33.1,32.0,96,30.03,3.0,NNW,16.1,-,0.00,Snow,Light Snow,330,2013-05-03 14:41:00
9:52 AM,33.1,32.0,96,30.06,1.5,NW,13.8,-,0.00,Snow,Light Snow,320,2013-05-03 14:52:00
10:05 AM,33.1,32.0,96,30.04,0.8,NW,11.5,21.9,0.01,Snow,Light Snow,310,2013-05-03 15:05:00
10:18 AM,33.1,32.0,96,30.04,1.0,NW,11.5,-,0.02,Snow,Light Snow,320,2013-05-03 15:18:00
10:30 AM,33.1,32.0,96,30.05,0.8,NW,10.4,19.6,0.03,Snow,Light Snow,320,2013-05-03 15:30:00
10:40 AM,33.1,32.0,96,30.06,1.2,NW,11.5,-,0.03,Snow,Light Snow,310,2013-05-03 15:40:00
11:02 AM,33.1,32.0,96,30.03,3.0,NW,16.1,-,0.00,Snow,Light Snow,320,2013-05-03 16:02:00
11:37 AM,34.0,32.0,92,30.04,2.5,NW,13.8,-,0.00,Snow,Light Snow,310,2013-05-03 16:37:00
11:52 AM,34.0,32.0,92,30.06,2.5,NW,16.1,21.9,0.00,Snow,Light Snow,320,2013-05-03 16:52:00
12:04 PM,34.0,32.0,92,30.01,1.5,NW,17.3,24.2,0.00,Snow,Light Snow,320,2013-05-03 17:04:00
12:20 PM,34.0,33.1,96,30.03,3.0,NW,15.0,21.9,0.01,Snow,Light Snow,320,2013-05-03 17:20:00
12:52 PM,35.1,33.1,92,30.04,9.0,NW,16.1,-,0.01,Snow,Light Snow,320,2013-05-03 17:52:00
1:52 PM,35.1,33.1,92,30.04,7.0,NNW,17.3,-,0.00,Rain,Light Rain,330,2013-05-03 18:52:00
2:02 PM,35.1,33.1,92,30.01,4.0,NNW,15.0,23.0,0.00,Snow,Light Snow,330,2013-05-03 19:02:00
2:38 PM,35.1,33.1,92,30.01,1.8,NNW,11.5,-,0.01,Snow,Light Snow,330,2013-05-03 19:38:00
2:52 PM,34.0,33.1,96,30.03,1.2,NW,11.5,-,0.03,Snow,Light Snow,320,2013-05-03 19:52:00
3:05 PM,35.1,33.1,92,30.00,2.0,NW,10.4,-,0.00,Snow,Light Snow,320,2013-05-03 20:05:00
3:15 PM,35.1,34.0,96,29.99,1.8,NW,11.5,-,0.02,Snow,Light Snow,320,2013-05-03 20:15:00
3:23 PM,35.1,34.0,96,29.99,2.5,NW,15.0,-,0.02,Snow,Light Snow,320,2013-05-03 20:23:00
3:36 PM,35.1,34.0,96,29.99,4.0,NW,9.2,-,0.03,Snow,Light Snow,310,2013-05-03 20:36:00
3:52 PM,35.1,34.0,96,30.01,6.0,NW,13.8,20.7,0.03,Snow,Light Snow,320,2013-05-03 20:52:00
4:52 PM,36.0,34.0,93,29.99,8.0,NW,13.8,-,0.01,Snow,Light Snow,320,2013-05-03 21:52:00
5:52 PM,36.0,34.0,93,29.99,10.0,NW,9.2,-,0.01,Rain,Light Rain,310,2013-05-03 22:52:00
6:52 PM,35.1,33.1,92,29.99,4.0,NW,6.9,-,0.01,Snow,Light Snow,310,2013-05-03 23:52:00
7:10 PM,34.0,32.0,92,29.96,1.8,West,6.9,-,0.01,Snow,Light Snow,280,2013-05-04 00:10:00
7:24 PM,33.1,32.0,96,29.95,1.0,WNW,5.8,-,0.03,Snow,Light Snow,290,2013-05-04 00:24:00
7:30 PM,33.1,32.0,96,29.95,0.8,WNW,6.9,-,0.03,Snow,Light Snow,290,2013-05-04 00:30:00
7:52 PM,33.1,32.0,96,29.98,0.8,WNW,5.8,-,0.06,Snow,Light Snow,290,2013-05-04 00:52:00
8:19 PM,33.1,32.0,96,29.95,1.2,WNW,5.8,-,0.03,Snow,Light Snow,300,2013-05-04 01:19:00
8:35 PM,33.1,32.0,96,29.94,3.0,WNW,6.9,-,0.03,Snow,Light Snow,300,2013-05-04 01:35:00
8:44 PM,33.1,32.0,96,29.95,4.0,NW,8.1,-,0.03,Snow,Light Snow,310,2013-05-04 01:44:00
8:52 PM,33.1,32.0,96,29.98,4.0,WNW,6.9,-,0.03,Snow,Light Snow,300,2013-05-04 01:52:00
9:05 PM,33.1,32.0,96,29.95,2.0,WNW,6.9,-,0.01,Snow,Light Snow,300,2013-05-04 02:05:00
9:14 PM,33.1,32.0,96,29.95,1.8,NW,6.9,-,0.02,Snow,Light Snow,310,2013-05-04 02:14:00
9:25 PM,33.1,32.0,96,29.94,2.0,WNW,5.8,-,0.02,Snow,Light Snow,300,2013-05-04 02:25:00
9:36 PM,33.1,32.0,96,29.94,3.0,WNW,6.9,-,0.02,Snow,Light Snow,290,2013-05-04 02:36:00
9:48 PM,33.8,32.0,93,29.94,7.0,WNW,6.9,-,0.02,Snow,Light Snow,300,2013-05-04 02:48:00
9:52 PM,33.1,32.0,96,29.97,8.0,WNW,6.9,-,0.02,Snow,Light Snow,300,2013-05-04 02:52:00
10:00 PM,33.1,32.0,96,29.94,9.0,NW,5.8,-,0.00,,Overcast,310,2013-05-04 03:00:00
10:24 PM,33.1,32.0,96,29.93,3.0,WNW,4.6,-,0.01,Snow,Light Snow,290,2013-05-04 03:24:00
10:52 PM,33.1,32.0,96,29.95,7.0,WNW,5.8,-,0.01,Snow,Light Snow,300,2013-05-04 03:52:00
11:11 PM,33.1,32.0,96,29.91,10.0,WNW,5.8,-,0.00,Snow,Light Snow,300,2013-05-04 04:11:00
11:52 PM,33.1,32.0,96,29.92,7.0,WNW,4.6,-,0.00,Snow,Light Snow,300,2013-05-04 04:52:00